WMT411 LZKZ-LIRF

Flight info

Callsign WMT411
Flight time N/A
Altitude 38000
Route KEKED DCT FOGRE DCT OSDUK DCT IRDIV DCT XAMIT/N0437F370 DCT OTRET DCT MOPUV
Aircraft A321/M-SDE1E2E3FGIJ1J4RWXY/LB1

Departure

Time 2026-04-25 08:35
Airport Košice International Airport (LZKZ)

Arrival

Time N/A
Airport Rome–Fiumicino Leonardo da Vinci International Airport (LIRF)
Time Latitude Longitude Altitude Speed Heading
2026-04-25 08:25 48.67280 21.23839 766 ft 0 kts 186°
2026-04-25 08:27 48.67264 21.23836 766 ft 7 kts 185°
2026-04-25 08:27 48.67207 21.23877 766 ft 10 kts 117°
2026-04-25 08:28 48.67192 21.23975 765 ft 9 kts 102°
2026-04-25 08:28 48.67181 21.24068 763 ft 9 kts 99°
2026-04-25 08:28 48.67191 21.24158 762 ft 9 kts 46°
2026-04-25 08:28 48.67225 21.24183 762 ft 8 kts 21°
2026-04-25 08:29 48.67253 21.24237 762 ft 7 kts 84°
2026-04-25 08:29 48.67243 21.24316 761 ft 9 kts 108°
2026-04-25 08:29 48.67212 21.24403 763 ft 11 kts 142°
2026-04-25 08:29 48.67117 21.24401 765 ft 18 kts 192°
2026-04-25 08:30 48.66965 21.24346 766 ft 24 kts 192°
2026-04-25 08:30 48.66788 21.24285 764 ft 29 kts 193°
2026-04-25 08:30 48.66597 21.24219 755 ft 28 kts 193°
2026-04-25 08:30 48.66399 21.24149 757 ft 25 kts 194°
2026-04-25 08:31 48.66225 21.24086 755 ft 26 kts 193°
2026-04-25 08:31 48.66048 21.24025 756 ft 26 kts 193°
2026-04-25 08:31 48.65870 21.23963 757 ft 26 kts 192°
2026-04-25 08:31 48.65690 21.23900 751 ft 28 kts 193°
2026-04-25 08:32 48.65503 21.23831 753 ft 28 kts 194°
2026-04-25 08:32 48.65316 21.23763 753 ft 27 kts 192°
2026-04-25 08:32 48.65137 21.23705 755 ft 21 kts 191°
2026-04-25 08:32 48.65021 21.23637 754 ft 12 kts 186°
2026-04-25 08:33 48.65022 21.23675 753 ft 4 kts
2026-04-25 08:33 48.65044 21.23680 755 ft 0 kts 11°
2026-04-25 08:34 48.65045 21.23681 755 ft 1 kts 11°
2026-04-25 08:34 48.65184 21.23728 750 ft 59 kts 13°
2026-04-25 08:34 48.65849 21.23960 757 ft 133 kts 13°
2026-04-25 08:34 48.66912 21.24333 983 ft 168 kts 13°
2026-04-25 08:35 48.68029 21.24702 1825 ft 164 kts 12°
2026-04-25 08:35 48.69172 21.25100 2371 ft 175 kts 12°
2026-04-25 08:35 48.70444 21.25551 2727 ft 199 kts 12°
2026-04-25 08:35 48.71859 21.26050 3166 ft 215 kts 12°
2026-04-25 08:36 48.73338 21.26569 3788 ft 220 kts 10°
2026-04-25 08:36 48.74838 21.26571 4397 ft 219 kts 343°
2026-04-25 08:36 48.76164 21.25487 5106 ft 217 kts 315°
2026-04-25 08:36 48.76992 21.23618 5846 ft 214 kts 289°
2026-04-25 08:37 48.77177 21.21368 6416 ft 225 kts 263°
2026-04-25 08:37 48.76550 21.19102 6794 ft 253 kts 232°
2026-04-25 08:37 48.75136 21.17320 7368 ft 270 kts 219°
2026-04-25 08:37 48.73590 21.15634 8159 ft 276 kts 219°
2026-04-25 08:38 48.72001 21.13916 8970 ft 282 kts 219°
2026-04-25 08:38 48.70409 21.12195 9774 ft 288 kts 220°
2026-04-25 08:38 48.68757 21.10403 10405 ft 299 kts 220°
2026-04-25 08:38 48.66999 21.08479 10634 ft 322 kts 220°
2026-04-25 08:39 48.65129 21.06423 11045 ft 337 kts 220°
2026-04-25 08:39 48.63209 21.04322 11755 ft 343 kts 220°
2026-04-25 08:39 48.61284 21.02227 12486 ft 347 kts 220°
2026-04-25 08:39 48.59303 21.00072 13232 ft 351 kts 220°
2026-04-25 08:40 48.57304 20.97893 13948 ft 356 kts 220°
2026-04-25 08:40 48.55286 20.95691 14612 ft 359 kts 220°
2026-04-25 08:40 48.53250 20.93471 15291 ft 362 kts 220°
2026-04-25 08:40 48.51225 20.91264 15977 ft 365 kts 220°
2026-04-25 08:41 48.49155 20.89010 16662 ft 368 kts 220°
2026-04-25 08:41 48.47068 20.86744 17343 ft 371 kts 220°
2026-04-25 08:41 48.44957 20.84456 18041 ft 375 kts 220°
2026-04-25 08:41 48.42833 20.82152 18660 ft 378 kts 220°
2026-04-25 08:42 48.40687 20.79828 19255 ft 381 kts 220°
2026-04-25 08:42 48.38527 20.77499 19853 ft 384 kts 220°
2026-04-25 08:42 48.36374 20.75181 20446 ft 387 kts 221°
2026-04-25 08:42 48.34178 20.72811 21066 ft 390 kts 221°
2026-04-25 08:43 48.31960 20.70421 21666 ft 393 kts 221°
2026-04-25 08:43 48.29729 20.68021 22228 ft 396 kts 221°
2026-04-25 08:43 48.27472 20.65596 22807 ft 400 kts 221°
2026-04-25 08:43 48.25197 20.63151 23374 ft 403 kts 221°
2026-04-25 08:44 48.22906 20.60687 23881 ft 406 kts 221°
2026-04-25 08:44 48.20629 20.58244 24336 ft 409 kts 221°
2026-04-25 08:44 48.18304 20.55751 24786 ft 412 kts 221°
2026-04-25 08:44 48.15954 20.53237 25237 ft 415 kts 221°
2026-04-25 08:45 48.13623 20.50748 25665 ft 418 kts 221°
2026-04-25 08:45 48.11248 20.48214 26087 ft 420 kts 221°
2026-04-25 08:45 48.08853 20.45659 26524 ft 424 kts 221°
2026-04-25 08:45 48.06443 20.43092 26940 ft 427 kts 221°
2026-04-25 08:46 48.04017 20.40509 27349 ft 429 kts 221°
2026-04-25 08:46 48.01571 20.37909 27756 ft 432 kts 221°
2026-04-25 08:46 47.99110 20.35301 28153 ft 435 kts 221°
2026-04-25 08:46 47.96627 20.32674 28549 ft 437 kts 221°
2026-04-25 08:47 47.94135 20.30033 28952 ft 440 kts 221°
2026-04-25 08:47 47.91630 20.27381 29339 ft 443 kts 221°
2026-04-25 08:47 47.89134 20.24746 29698 ft 446 kts 221°
2026-04-25 08:47 47.86589 20.22064 30069 ft 449 kts 221°
2026-04-25 08:48 47.84026 20.19364 30392 ft 451 kts 221°
2026-04-25 08:48 47.81451 20.16658 30737 ft 453 kts 221°
2026-04-25 08:48 47.78865 20.13948 31080 ft 455 kts 221°
2026-04-25 08:48 47.76270 20.11231 31419 ft 457 kts 221°
2026-04-25 08:49 47.73690 20.08529 31784 ft 457 kts 221°
2026-04-25 08:49 47.71090 20.05810 32286 ft 455 kts 221°
2026-04-25 08:49 47.68502 20.03106 32780 ft 453 kts 221°
2026-04-25 08:49 47.65926 20.00418 33264 ft 451 kts 221°
2026-04-25 08:50 47.63368 19.97750 33740 ft 449 kts 221°
2026-04-25 08:50 47.60809 19.95080 34204 ft 447 kts 221°
2026-04-25 08:50 47.58293 19.92456 34595 ft 446 kts 221°
2026-04-25 08:50 47.55755 19.89819 34972 ft 445 kts 221°
2026-04-25 08:51 47.53211 19.87179 35321 ft 444 kts 221°
2026-04-25 08:51 47.50676 19.84552 35684 ft 444 kts 221°
2026-04-25 08:51 47.48174 19.81964 36038 ft 443 kts 221°
2026-04-25 08:51 47.45642 19.79348 36406 ft 443 kts 221°
2026-04-25 08:52 47.43112 19.76737 36755 ft 442 kts 221°
2026-04-25 08:52 47.40588 19.74136 37107 ft 441 kts 221°
2026-04-25 08:52 47.38094 19.71563 37430 ft 441 kts 221°
2026-04-25 08:52 47.35577 19.68968 37714 ft 441 kts 221°
2026-04-25 08:53 47.33059 19.66377 37955 ft 442 kts 221°
2026-04-25 08:53 47.28000 19.61189 38030 ft 442 kts 221°
2026-04-25 08:54 47.22969 19.56044 38028 ft 441 kts 221°
2026-04-25 08:54 47.17924 19.50889 38034 ft 441 kts 221°
2026-04-25 08:55 47.12870 19.45738 38036 ft 441 kts 221°
2026-04-25 08:55 47.07858 19.40639 38040 ft 441 kts 221°
2026-04-25 08:56 47.02795 19.35508 38050 ft 442 kts 221°
2026-04-25 08:56 46.97759 19.30417 38047 ft 442 kts 220°
2026-04-25 08:57 46.92681 19.25287 38063 ft 443 kts 220°
2026-04-25 08:57 46.87582 19.20161 38078 ft 444 kts 220°
2026-04-25 08:58 46.82523 19.15081 38076 ft 444 kts 220°
2026-04-25 08:58 46.77435 19.09975 38086 ft 444 kts 220°
2026-04-25 08:59 46.72339 19.04874 38091 ft 444 kts 220°
2026-04-25 08:59 46.67239 18.99796 38096 ft 444 kts 220°
2026-04-25 09:00 46.62138 18.94723 38071 ft 444 kts 219°
2026-04-25 09:00 46.57046 18.89669 38093 ft 443 kts 219°
2026-04-25 09:01 46.51952 18.84619 38104 ft 443 kts 219°
2026-04-25 09:01 46.46864 18.79583 38104 ft 442 kts 219°
2026-04-25 09:02 46.41776 18.74562 38096 ft 442 kts 219°
2026-04-25 09:02 46.36688 18.69559 38101 ft 442 kts 219°
2026-04-25 09:03 46.31595 18.64556 38104 ft 442 kts 219°
2026-04-25 09:03 46.26498 18.59572 38085 ft 442 kts 218°
2026-04-25 09:04 46.21398 18.54600 38089 ft 442 kts 218°
2026-04-25 09:04 46.16297 18.49631 38097 ft 442 kts 218°
2026-04-25 09:05 46.11230 18.44688 38107 ft 442 kts 218°
2026-04-25 09:05 46.06095 18.39693 38090 ft 443 kts 218°
2026-04-25 09:06 46.01016 18.34779 38094 ft 443 kts 218°
2026-04-25 09:06 45.95894 18.29841 38100 ft 443 kts 218°
2026-04-25 09:07 45.90770 18.24902 38092 ft 444 kts 218°
2026-04-25 09:07 45.85637 18.19970 38094 ft 444 kts 218°
2026-04-25 09:08 45.80499 18.15041 38099 ft 444 kts 218°
2026-04-25 09:08 45.75895 18.09279 38104 ft 438 kts 229°
2026-04-25 09:09 45.71588 18.03090 38096 ft 439 kts 229°
2026-04-25 09:09 45.67252 17.96923 38104 ft 439 kts 228°
2026-04-25 09:10 45.62914 17.90754 38107 ft 439 kts 228°
2026-04-25 09:10 45.58576 17.84594 38110 ft 439 kts 228°
2026-04-25 09:11 45.52092 17.75426 38111 ft 439 kts 227°
2026-04-25 09:11 45.47748 17.69296 38104 ft 439 kts 227°
2026-04-25 09:12 45.43402 17.63173 38113 ft 439 kts 227°
2026-04-25 09:12 45.39050 17.57059 38112 ft 440 kts 227°
2026-04-25 09:13 45.34693 17.50956 38116 ft 439 kts 227°
2026-04-25 09:13 45.30336 17.44862 38118 ft 439 kts 227°
2026-04-25 09:14 45.25981 17.38773 38111 ft 439 kts 227°
2026-04-25 09:14 45.21615 17.32701 38102 ft 439 kts 227°
2026-04-25 09:15 45.17250 17.26645 38104 ft 439 kts 227°
2026-04-25 09:15 45.13622 17.21611 38109 ft 439 kts 227°
2026-04-25 09:16 45.09250 17.15556 38113 ft 440 kts 227°
2026-04-25 09:16 45.04866 17.09515 38105 ft 440 kts 226°
2026-04-25 09:17 44.98249 17.00387 38107 ft 450 kts 226°
2026-04-25 09:18 44.93723 16.94163 38099 ft 456 kts 226°
2026-04-25 09:18 44.89170 16.87923 38096 ft 457 kts 226°
2026-04-25 09:19 44.84602 16.81672 38095 ft 458 kts 226°
2026-04-25 09:19 44.80029 16.75429 38096 ft 458 kts 226°
2026-04-25 09:20 44.75443 16.69179 38110 ft 459 kts 226°
2026-04-25 09:20 44.70842 16.62931 38104 ft 460 kts 226°
2026-04-25 09:21 44.66228 16.56675 38109 ft 461 kts 226°
2026-04-25 09:21 44.61604 16.50428 38110 ft 461 kts 225°
2026-04-25 09:22 44.56981 16.44188 38105 ft 462 kts 225°
2026-04-25 09:22 44.52346 16.37946 38108 ft 462 kts 225°
2026-04-25 09:23 44.47702 16.31718 38115 ft 462 kts 225°
2026-04-25 09:23 44.42497 16.24743 38112 ft 461 kts 225°
2026-04-25 09:24 44.37857 16.18542 38102 ft 462 kts 225°
2026-04-25 09:24 44.33210 16.12343 38105 ft 462 kts 225°
2026-04-25 09:25 44.28559 16.06157 38103 ft 462 kts 225°
2026-04-25 09:25 44.23903 15.99980 38091 ft 462 kts 224°
2026-04-25 09:26 44.19238 15.93801 38095 ft 463 kts 224°
2026-04-25 09:26 44.15321 15.88619 38097 ft 464 kts 224°
2026-04-25 09:27 44.10640 15.82444 38100 ft 464 kts 224°
2026-04-25 09:27 44.05969 15.76314 38105 ft 465 kts 224°
2026-04-25 09:28 44.01270 15.70148 38114 ft 465 kts 224°
2026-04-25 09:28 43.99675 15.68056 38109 ft 465 kts 224°
2026-04-25 09:29 43.86856 15.51312 38121 ft 465 kts 224°
2026-04-25 09:30 43.82134 15.45177 38120 ft 465 kts 223°
2026-04-25 09:30 43.77410 15.39049 38120 ft 466 kts 224°
2026-04-25 09:31 43.72712 15.32964 38122 ft 466 kts 223°
2026-04-25 09:31 43.67973 15.26844 38123 ft 466 kts 223°
2026-04-25 09:32 43.63242 15.20745 38125 ft 465 kts 223°
2026-04-25 09:32 43.58507 15.14658 38123 ft 465 kts 223°
2026-04-25 09:33 43.53770 15.08574 38118 ft 466 kts 223°
2026-04-25 09:33 43.49018 15.02500 38119 ft 466 kts 223°
2026-04-25 09:34 43.44258 14.96427 38130 ft 466 kts 223°
2026-04-25 09:34 43.39499 14.90357 38121 ft 467 kts 223°
2026-04-25 09:35 43.34733 14.84289 38118 ft 467 kts 223°
2026-04-25 09:35 43.29952 14.78245 38122 ft 467 kts 223°
2026-04-25 09:36 43.25173 14.72211 38122 ft 467 kts 222°
2026-04-25 09:36 43.20387 14.66170 38121 ft 468 kts 222°
2026-04-25 09:37 43.15601 14.60118 38122 ft 469 kts 222°
2026-04-25 09:37 43.10804 14.54070 38121 ft 469 kts 222°
2026-04-25 09:38 43.05994 14.48036 38121 ft 469 kts 222°
2026-04-25 09:38 43.02800 14.44047 38121 ft 470 kts 222°